Tracking 29892 objects as of 21-Nov-2024
HD Live streaming from Space Station
objects crossing your sky now

STARLINK-11107

Track STARLINK-11107 now!
10-day predictions
STARLINK-11107 is classified as:


NORAD ID: 59708
Int'l Code: 2024-088A
Perigee: 366.0 km
Apogee: 367.7 km
Inclination: 53.2 °
Period: 91.7 minutes
Semi major axis: 6737 km
RCS: Unknown
Launch date: May 10, 2024
Source: United States (US)
Launch site: AIR FORCE WESTERN TEST RANGE (AFWTR)
Your satellite tracking list
Your tracking list is empty




NASA's NSSDC Master Catalog

Two Line Element Set (TLE):
1 59708U 24088A   24324.88900378  .00000126  00000-0  59020-5 0  9999
2 59708  53.1577 146.5654 0001289 129.1727 230.9406 15.69713309 31595
Source of the keplerian elements: AFSPC